Weather History for Panama City Tyndall AFB, FL

Change the Weather History Date:

Wednesday, February 5, 2014

  Actual Average Record
Temperature  
Mean Temperature 58 °F -  
Max Temperature 72 °F 61 °F 75 °F (1997)
Min Temperature 42 °F 44 °F 29 °F (2009)
Degree Days  
Heating Degree Days 7    
Growing Degree Days 8 (Base 50)    
Moisture  
Dew Point 55 °F    
Average Humidity 74    
Maximum Humidity 94    
Minimum Humidity 37    
Precipitation  
Precipitation 0.03 in - - ()
Sea Level Pressure  
Sea Level Pressure 30.02 in    
Wind  
Wind Speed 14 mph (SSW)    
Max Wind Speed 18 mph    
Max Gust Speed 29 mph    
Visibility 4 miles    
Events Fog , Rain    
Averages and records for this station are not official NWS values.
T = Trace of Precipitation, MM = Missing Value Source: NWS Daily Summary

Daily Weather History Graph

Daily Weather History Graph

Search for Another Location

Airport:

Trip Planner

Search our weather history database for the weather conditions in past years. The results will help you decide how hot, cold, wet, or windy it might be!

Date:

Astronomy

Feb. 05, 2014 Rise Set
Actual Time 6:30 AM CST 5:22 PM CST
Civil Twilight 6:05 AM CST 5:47 PM CST
Nautical Twilight 5:36 AM CST 6:16 PM CST
Astronomical Twilight 5:08 AM CST 6:44 PM CST
Moon 10:15 AM CST (2/5) 11:44 PM CST (2/5)
Length of Visible Light 11h 42m
Length of Day
10h 52m
Waxing Crescent, 39% of the Moon is Illuminated
Feb 5
Waxing Crescent
Feb 6
First Quarter
Feb 14
Full
Feb 22
Last Quarter
Mar 1
New

Hourly Weather History & Observations

Time (CST) Temp. Windchill Dew Point Humidity Pressure Visibility Wind Dir Wind Speed Gust Speed Precip Events Conditions
12:08 AM 66.2 °F - 57.2 °F 73% 29.98 in 1.2 mi SSE 17.3 mph - N/A   Haze
12:13 AM 66.2 °F - 55.4 °F 68% 29.98 in 1.0 mi SSE 16.1 mph - N/A   Haze
12:18 AM 66.2 °F - 59.0 °F 78% 29.98 in 1.2 mi SSE 15.0 mph - N/A   Haze
12:23 AM 66.2 °F - 59.0 °F 78% 29.98 in 1.5 mi SSE 15.0 mph - N/A   Haze
12:28 AM 66.2 °F - 59.0 °F 78% 29.98 in 2.0 mi SSE 17.3 mph - N/A   Haze
12:43 AM 66.2 °F - 59.0 °F 78% 29.98 in 3.0 mi SSE 17.3 mph - N/A   Haze
12:48 AM 66.2 °F - 60.8 °F 83% 29.98 in 4.0 mi SSE 18.4 mph - N/A   Haze
12:58 AM 68.0 °F - 60.8 °F 78% 29.98 in 4.0 mi SSE 18.4 mph - N/A   Haze
1:03 AM 68.0 °F - 60.8 °F 78% 29.97 in 5.0 mi SSE 18.4 mph - N/A   Haze
1:08 AM 68.0 °F - 60.8 °F 78% 29.98 in 4.0 mi South 18.4 mph - N/A   Haze
1:13 AM 68.0 °F - 60.8 °F 78% 29.98 in 3.0 mi South 16.1 mph - N/A   Haze
1:18 AM 66.2 °F - 60.8 °F 83% 29.98 in 2.5 mi South 15.0 mph - N/A   Haze
1:23 AM 66.2 °F - 60.8 °F 83% 29.98 in 2.0 mi South 17.3 mph - N/A   Haze
1:28 AM 66.2 °F - 60.8 °F 83% 29.98 in 1.8 mi South 13.8 mph - N/A   Haze
1:38 AM 66.2 °F - 59.0 °F 78% 29.98 in 1.2 mi South 16.1 mph - N/A   Haze
1:43 AM 66.2 °F - 59.0 °F 78% 29.98 in 1.0 mi South 16.1 mph - N/A   Haze
1:48 AM 66.2 °F - 59.0 °F 78% 29.98 in 1.0 mi South 16.1 mph - N/A   Haze
1:53 AM 64.4 °F - 59.0 °F 83% 29.98 in 0.8 mi South 16.1 mph - N/A   Haze
1:58 AM 64.4 °F - 59.0 °F 83% 29.98 in 0.8 mi South 12.7 mph - N/A   Haze
2:23 AM 66.2 °F - 60.8 °F 83% 29.97 in 0.8 mi South 12.7 mph 21.9 mph N/A   Haze
2:28 AM 66.2 °F - 60.8 °F 83% 29.97 in 1.0 mi South 13.8 mph - N/A   Haze
2:33 AM 66.2 °F - 59.0 °F 78% 29.97 in 0.8 mi South 15.0 mph - N/A   Haze
2:38 AM 66.2 °F - 60.8 °F 83% 29.97 in 0.8 mi South 12.7 mph 20.7 mph N/A   Haze
2:43 AM 66.2 °F - 60.8 °F 83% 29.98 in 0.5 mi South 12.7 mph 20.7 mph N/A   Haze
2:53 AM 66.2 °F - 59.0 °F 78% 29.98 in 0.8 mi South 12.7 mph - N/A   Haze
2:58 AM 65.5 °F - 59.7 °F 82% 29.99 in 0.8 mi South 13.8 mph - N/A   Haze
3:03 AM 66.2 °F - 59.0 °F 78% 29.97 in 0.5 mi South 13.8 mph - N/A   Haze
3:28 AM 64.4 °F - 59.0 °F 83% 29.98 in 0.8 mi South 11.5 mph - N/A   Haze
3:39 AM 64.4 °F - 57.2 °F 77% 29.98 in 0.8 mi SW 6.9 mph - N/A Rain Heavy Rain
3:54 AM 64.4 °F - 59.0 °F 83% 29.98 in 0.5 mi South 8.1 mph - N/A Rain Light Rain
3:58 AM 64.6 °F - 58.6 °F 81% 29.99 in 0.5 mi South 9.2 mph - 0.01 in Rain Light Rain
3:59 AM 64.4 °F - 59.0 °F 83% 29.98 in 0.5 mi SSW 9.2 mph - N/A   Haze
4:09 AM 64.4 °F - 59.0 °F 83% 29.98 in 0.8 mi SSW 10.4 mph - N/A   Haze
4:14 AM 64.4 °F - 59.0 °F 83% 29.98 in 1.0 mi SSW 10.4 mph - N/A   Haze
4:24 AM 64.4 °F - 59.0 °F 83% 29.98 in 1.5 mi SSW 8.1 mph - N/A   Haze
4:37 AM 64.4 °F - 59.0 °F 83% 29.98 in 0.2 mi SSW 10.4 mph - N/A Fog Fog
4:51 AM 64.4 °F - 37.4 °F 37% 29.98 in 0.8 mi SSW 11.5 mph - N/A   Overcast
4:58 AM 64.9 °F - 52.2 °F 63% 29.99 in 0.8 mi SSW 11.5 mph - 0.00 in   Overcast
5:05 AM 66.2 °F - 64.4 °F 94% 29.98 in 1.0 mi SSW 10.4 mph - N/A   Overcast
5:30 AM 66.2 °F - 60.8 °F 83% 29.98 in 0.8 mi SW 12.7 mph - N/A   Overcast
5:58 AM 65.5 °F - 61.2 °F 86% 30.00 in 0.5 mi SW 9.2 mph - N/A Fog Fog
6:19 AM 66.2 °F - 60.8 °F 83% 29.99 in 0.8 mi SW 11.5 mph - N/A Rain Light Rain Showers
6:23 AM 66.2 °F - 60.8 °F 83% 30.00 in 2.0 mi WSW 18.4 mph 24.2 mph N/A Rain Light Rain Showers
6:27 AM 66.2 °F - 60.8 °F 83% 30.00 in 3.0 mi West 18.4 mph 28.8 mph N/A Rain Light Rain Showers
6:35 AM 66.2 °F - 60.8 °F 83% 30.00 in 3.0 mi West 13.8 mph 28.8 mph N/A Rain Light Rain Showers
6:44 AM 64.4 °F - 60.8 °F 88% 30.01 in 5.0 mi West 12.7 mph - N/A   Mostly Cloudy
6:58 AM 64.6 °F - 60.4 °F 86% 30.02 in 10.0 mi West 10.4 mph - 0.01 in   Mostly Cloudy
7:08 AM 64.4 °F - 60.8 °F 88% 30.01 in 10.0 mi WNW 9.2 mph - N/A   Scattered Clouds
7:58 AM 64.8 °F - 60.6 °F 86% 30.03 in 10.0 mi West 9.2 mph - N/A   Partly Cloudy
8:38 AM 64.4 °F - 59.0 °F 83% 30.04 in 10.0 mi WNW 11.5 mph - N/A   Mostly Cloudy
8:58 AM 64.6 °F - 59.4 °F 83% 30.05 in 10.0 mi West 6.9 mph - N/A   Mostly Cloudy
9:03 AM 64.4 °F - 60.8 °F 88% 30.04 in 10.0 mi WNW 8.1 mph - N/A   Scattered Clouds
9:58 AM 69.8 °F - 59.7 °F 70% 30.07 in 10.0 mi NW 12.7 mph - 0.01 in   Clear
10:11 AM 69.8 °F - 60.8 °F 73% 30.06 in 10.0 mi NW 15.0 mph - N/A   Mostly Cloudy
10:58 AM 70.2 °F - 58.5 °F 66% 30.07 in 10.0 mi NW 12.7 mph - N/A   Partly Cloudy
11:58 AM 71.6 °F - 58.1 °F 62% 30.06 in 10.0 mi NNW 11.5 mph - N/A   Clear
12:58 PM 72.0 °F - 57.7 °F 61% 30.04 in 10.0 mi NNE 10.4 mph - N/A   Scattered Clouds
1:58 PM 72.1 °F - 57.6 °F 60% 30.03 in 10.0 mi NNW 10.4 mph - N/A   Clear
2:58 PM 69.6 °F - 54.0 °F 57% 30.05 in 10.0 mi NNW 13.8 mph 17.3 mph N/A   Partly Cloudy
3:58 PM 66.4 °F - 46.9 °F 50% 30.07 in 10.0 mi NNW 13.8 mph - N/A   Clear
4:58 PM 62.4 °F - 40.6 °F 45% 30.09 in 10.0 mi NNW 6.9 mph 16.1 mph N/A   Clear
5:58 PM 57.6 °F - 35.1 °F 43% 30.12 in 10.0 mi NNW 9.2 mph - N/A   Clear
6:58 PM 53.4 °F - 30.4 °F 41% 30.16 in 10.0 mi North 12.7 mph 18.4 mph N/A   Clear
7:58 PM 50.0 °F - 26.8 °F 41% 30.17 in 10.0 mi North 15.0 mph 24.2 mph N/A   Clear
8:58 PM 46.9 °F - 24.3 °F 41% 30.20 in 10.0 mi North 9.2 mph 17.3 mph N/A   Clear
9:58 PM 45.3 °F 39.3 °F 23.7 °F 43% 30.22 in 10.0 mi North 12.7 mph 20.7 mph N/A   Clear
10:58 PM 44.1 °F 39.0 °F 23.0 °F 43% 30.23 in 10.0 mi North 9.2 mph - N/A   Clear
11:58 PM 42.8 °F 38.0 °F 21.9 °F 44% 30.23 in 10.0 mi North 8.1 mph 21.9 mph N/A   Clear